Location: Chippewa Lake
(41.0698°N, 81.9010°W)
Time: 00:14:02
(UTC+00:00)

SJ 16-02 - Pass Details

Date: 09 May 2021
Orbit: 606 x 616 km, 75.0° (Epoch: 24 June)

Event Time Altitude Azimuth Distance (km) Brightness Sun altitude
Exits shadow 04:43:27 15° 285° (WNW) 1,699 3.8 -30.8°
Maximum altitude 04:44:27 16° 301° (WNW) 1,648 3.9 -30.8°
Drops below altitude 10° 04:47:07 10° 338° (NNW) 1,985 4.8 -30.9°
Sets 04:50:14 0° 1° (N) 2,895 5.9 -31.0°
